| time (UTC) | temp F | wind direction | speed MPH | gust MPH | rain 1hr in | rain 24hr in | rain mn in | humidity % | barometer mb |
| 20260507004012 | 46 | 337 | 0.0 | 0.0 | 0.00 | 0.61 | 0.26 | 74 | 1011.4 |
| 20260507003453 | 46 | 337 | 0.0 | 0.0 | 0.00 | 0.61 | 0.26 | 74 | 1011.6 |
| 20260507002943 | 46 | 338 | 0.0 | 0.0 | 0.00 | 0.61 | 0.26 | 74 | 1011.5 |
| 20260507002425 | 46 | 338 | 0.0 | 0.0 | 0.00 | 0.61 | 0.26 | 74 | 1011.4 |
| 20260507001920 | 46 | 337 | 0.0 | 0.0 | 0.00 | 0.61 | 0.26 | 74 | 1011.3 |
| 20260507001347 | 46 | 337 | 0.0 | 0.0 | 0.00 | 0.61 | 0.26 | 73 | 1011.3 |
| 20260507000815 | 46 | 337 | 0.0 | 0.0 | 0.00 | 0.61 | 0.26 | 73 | 1011.3 |
| 20260507000249 | 47 | 338 | 0.0 | 0.0 | 0.00 | 0.61 | 0.26 | 74 | 1011.4 |
| 20260506235735 | 47 | 337 | 0.0 | 0.0 | 0.00 | 0.62 | 0.26 | 73 | 1011.4 |
| 20260506235215 | 47 | 337 | 0.0 | 0.0 | 0.00 | 0.62 | 0.26 | 73 | 1011.3 |
| 20260506234656 | 47 | 338 | 0.0 | 0.0 | 0.00 | 0.63 | 0.26 | 72 | 1011.3 |
| 20260506234144 | 47 | 337 | 0.0 | 0.0 | 0.00 | 0.63 | 0.26 | 72 | 1011.2 |
| 20260506233624 | 47 | 337 | 0.0 | 0.0 | 0.00 | 0.64 | 0.26 | 71 | 1011.2 |
| 20260506233336 | 47 | 337 | 0.0 | 0.0 | 0.00 | 0.65 | 0.26 | 72 | 1011.2 |
| 20260506232520 | 47 | 337 | 0.0 | 0.0 | 0.00 | 0.67 | 0.26 | 71 | 1011.3 |
| 20260506231941 | 47 | 337 | 0.0 | 0.0 | 0.00 | 0.73 | 0.26 | 70 | 1011.2 |
| 20260506231441 | 47 | 337 | 0.0 | 0.0 | 0.00 | 0.76 | 0.26 | 69 | 1011.2 |
| 20260506230940 | 48 | 337 | 0.0 | 0.0 | 0.00 | 0.76 | 0.26 | 69 | 1011.2 |
| 20260506230350 | 48 | 337 | 0.0 | 0.0 | 0.00 | 0.77 | 0.26 | 68 | 1011.1 |
| 20260506225800 | 48 | 337 | 0.0 | 0.0 | 0.00 | 0.79 | 0.26 | 70 | 1011.2 |
| 20260506225253 | 48 | 337 | 0.0 | 0.0 | 0.00 | 0.81 | 0.26 | 69 | 1011.1 |
| 20260506225011 | 48 | 337 | 0.0 | 0.0 | 0.00 | 0.83 | 0.26 | 70 | 1011.3 |
| 20260506224200 | 48 | 337 | 0.0 | 0.0 | 0.00 | 0.85 | 0.26 | 69 | 1011.2 |
| 20260506223627 | 48 | 337 | 0.0 | 0.0 | 0.00 | 0.86 | 0.26 | 70 | 1011.0 |
| 20260506223032 | 48 | 337 | 0.0 | 1.0 | 0.00 | 0.87 | 0.26 | 70 | 1011.1 |
| 20260506222506 | 48 | 337 | 0.0 | 2.0 | 0.00 | 0.88 | 0.26 | 69 | 1011.0 |
| 20260506221932 | 48 | 336 | 0.0 | 4.0 | 0.00 | 0.91 | 0.26 | 69 | 1011.0 |
| 20260506221409 | 49 | 336 | 0.0 | 4.0 | 0.00 | 0.93 | 0.26 | 69 | 1011.0 |
| 20260506220847 | 48 | 340 | 0.0 | 1.0 | 0.00 | 0.95 | 0.26 | 68 | 1011.0 |
| 20260506220334 | 49 | 340 | 0.0 | 2.0 | 0.00 | 0.97 | 0.26 | 68 | 1010.8 |
| 20260506215748 | 49 | 340 | 0.0 | 1.0 | 0.00 | 0.97 | 0.26 | 67 | 1010.7 |
| 20260506215202 | 49 | 340 | 0.0 | 2.0 | 0.00 | 0.97 | 0.26 | 67 | 1010.4 |
| 20260506214603 | 49 | 340 | 0.0 | 2.0 | 0.00 | 0.98 | 0.26 | 67 | 1010.5 |
| 20260506214042 | 49 | 340 | 0.0 | 3.0 | 0.00 | 1.01 | 0.26 | 68 | 1010.3 |
| 20260506213508 | 49 | 340 | 0.0 | 3.0 | 0.00 | 1.03 | 0.26 | 67 | 1010.4 |
| 20260506212918 | 49 | 16 | 1.0 | 3.0 | 0.00 | 1.06 | 0.26 | 67 | 1010.4 |
| 20260506212332 | 49 | 16 | 1.0 | 6.0 | 0.00 | 1.07 | 0.26 | 66 | 1010.4 |
| 20260506211808 | 49 | 17 | 1.0 | 6.0 | 0.00 | 1.09 | 0.26 | 66 | 1010.4 |
| 20260506211312 | 49 | 348 | 1.0 | 4.0 | 0.00 | 1.11 | 0.26 | 69 | 1010.4 |
| 20260506210748 | 49 | 348 | 1.0 | 4.0 | 0.00 | 1.11 | 0.26 | 67 | 1010.4 |
| 20260506210251 | 49 | 347 | 1.0 | 4.0 | 0.00 | 1.13 | 0.26 | 67 | 1010.4 |
| 20260506205710 | 49 | 346 | 1.0 | 4.0 | 0.00 | 1.16 | 0.26 | 67 | 1010.4 |
| 20260506205413 | 49 | 315 | 0.0 | 3.0 | 0.00 | 1.19 | 0.26 | 67 | 1010.4 |
| 20260506204651 | 49 | 313 | 0.0 | 2.0 | 0.00 | 1.20 | 0.26 | 67 | 1010.4 |
| 20260506204338 | 49 | 310 | 1.0 | 4.0 | 0.00 | 1.25 | 0.26 | 67 | 1010.3 |
| 20260506203819 | 49 | 344 | 1.0 | 4.0 | 0.00 | 1.27 | 0.26 | 69 | 1010.3 |
| 20260506203044 | 49 | 328 | 1.0 | 3.0 | 0.00 | 1.29 | 0.26 | 69 | 1010.4 |
| 20260506202519 | 49 | 327 | 0.0 | 3.0 | 0.00 | 1.31 | 0.26 | 69 | 1010.4 |
| 20260506202031 | 50 | 327 | 1.0 | 3.0 | 0.00 | 1.33 | 0.26 | 68 | 1010.3 |
| 20260506201454 | 50 | 327 | 1.0 | 3.0 | 0.00 | 1.34 | 0.26 | 66 | 1010.4 |
| 20260506201222 | 50 | 327 | 1.0 | 4.0 | 0.00 | 1.35 | 0.26 | 66 | 1010.4 |
| 20260506200441 | 50 | 327 | 2.0 | 5.0 | 0.00 | 1.36 | 0.26 | 67 | 1010.4 |
| 20260506195944 | 51 | 287 | 2.0 | 5.0 | 0.00 | 1.38 | 0.26 | 65 | 1010.4 |
| 20260506195408 | 51 | 287 | 2.0 | 5.0 | 0.00 | 1.40 | 0.26 | 64 | 1010.3 |
| 20260506195114 | 51 | 287 | 2.0 | 5.0 | 0.00 | 1.40 | 0.26 | 62 | 1010.3 |
| 20260506194358 | 51 | 286 | 2.0 | 4.0 | 0.00 | 1.41 | 0.26 | 62 | 1010.1 |
| 20260506193839 | 51 | 286 | 1.0 | 4.0 | 0.00 | 1.42 | 0.26 | 64 | 1010.3 |
| 20260506193333 | 51 | 341 | 1.0 | 4.0 | 0.00 | 1.42 | 0.26 | 65 | 1010.3 |
| 20260506192823 | 51 | 342 | 2.0 | 4.0 | 0.00 | 1.42 | 0.26 | 64 | 1010.3 |
| 20260506192246 | 51 | 344 | 1.0 | 6.0 | 0.00 | 1.43 | 0.26 | 66 | 1010.2 |
| 20260506191736 | 52 | 344 | 1.0 | 6.0 | 0.00 | 1.43 | 0.26 | 66 | 1010.2 |
| 20260506191236 | 51 | 306 | 1.0 | 4.0 | 0.00 | 1.43 | 0.26 | 68 | 1010.3 |
| 20260506190720 | 51 | 329 | 2.0 | 6.0 | 0.00 | 1.43 | 0.26 | 70 | 1010.3 |
| 20260506190212 | 51 | 328 | 2.0 | 9.0 | 0.00 | 1.43 | 0.26 | 67 | 1010.2 |
| 20260506185645 | 51 | 284 | 1.0 | 5.0 | 0.00 | 1.43 | 0.26 | 68 | 1010.5 |
| 20260506185107 | 51 | 293 | 1.0 | 5.0 | 0.00 | 1.43 | 0.26 | 68 | 1010.3 |
| 20260506184539 | 51 | 297 | 1.0 | 5.0 | 0.00 | 1.43 | 0.26 | 71 | 1010.3 |
| 20260506184031 | 51 | 280 | 1.0 | 6.0 | 0.00 | 1.43 | 0.26 | 68 | 1010.4 |
| 20260506183528 | 52 | 266 | 1.0 | 5.0 | 0.00 | 1.43 | 0.26 | 69 | 1010.4 |
| 20260506183248 | 51 | 304 | 2.0 | 5.0 | 0.00 | 1.43 | 0.26 | 72 | 1010.4 |
| 20260506182532 | 51 | 303 | 2.0 | 6.0 | 0.00 | 1.43 | 0.26 | 72 | 1010.2 |
| 20260506182255 | 52 | 355 | 2.0 | 10.0 | 0.00 | 1.43 | 0.26 | 71 | 1010.3 |
| 20260506181525 | 51 | 355 | 3.0 | 10.0 | 0.00 | 1.43 | 0.26 | 73 | 1010.5 |
| 20260506181012 | 51 | 188 | 2.0 | 7.0 | 0.00 | 1.43 | 0.26 | 74 | 1010.3 |
| 20260506180741 | 51 | 309 | 2.0 | 5.0 | 0.00 | 1.43 | 0.26 | 74 | 1010.2 |
| 20260506180010 | 51 | 297 | 2.0 | 5.0 | 0.00 | 1.43 | 0.26 | 75 | 1010.1 |
| 20260506175510 | 50 | 347 | 1.0 | 5.0 | 0.00 | 1.43 | 0.26 | 76 | 1010.0 |
| 20260506174936 | 50 | 281 | 2.0 | 7.0 | 0.00 | 1.43 | 0.26 | 78 | 1009.8 |
| 20260506174851 | 50 | 281 | 2.0 | 7.0 | 0.00 | 1.43 | 0.26 | 78 | 1009.7 |
| 20260506173920 | 51 | 321 | 1.0 | 5.0 | 0.00 | 1.43 | 0.26 | 78 | 1009.8 |
| 20260506173600 | 51 | 301 | 2.0 | 5.0 | 0.00 | 1.43 | 0.26 | 79 | 1010.0 |
| 20260506172835 | 51 | 355 | 2.0 | 6.0 | 0.00 | 1.43 | 0.26 | 79 | 1010.3 |
| 20260506172300 | 51 | 346 | 2.0 | 9.0 | 0.00 | 1.43 | 0.26 | 79 | 1010.2 |
| 20260506171757 | 51 | 261 | 2.0 | 9.0 | 0.00 | 1.43 | 0.26 | 79 | 1010.2 |
| 20260506171300 | 51 | 288 | 2.0 | 6.0 | 0.00 | 1.43 | 0.26 | 81 | 1010.0 |
| 20260506170753 | 51 | 321 | 1.0 | 5.0 | 0.00 | 1.43 | 0.26 | 81 | 1009.9 |
| 20260506170256 | 50 | 314 | 1.0 | 9.0 | 0.00 | 1.43 | 0.26 | 83 | 1009.8 |
| 20260506165947 | 49 | 262 | 2.0 | 9.0 | 0.00 | 1.43 | 0.26 | 84 | 1009.7 |
| 20260506165118 | 49 | 348 | 1.0 | 4.0 | 0.00 | 1.43 | 0.26 | 87 | 1009.6 |
| 20260506164622 | 48 | 355 | 3.0 | 7.0 | 0.00 | 1.43 | 0.26 | 86 | 1009.4 |
| 20260506164333 | 48 | 314 | 3.0 | 7.0 | 0.00 | 1.43 | 0.26 | 85 | 1009.4 |
| 20260506163610 | 48 | 310 | 2.0 | 6.0 | 0.00 | 1.43 | 0.26 | 86 | 1009.4 |
| 20260506163106 | 48 | 344 | 2.0 | 5.0 | 0.00 | 1.43 | 0.26 | 86 | 1009.5 |
| 20260506162606 | 49 | 346 | 3.0 | 6.0 | 0.00 | 1.43 | 0.26 | 85 | 1009.6 |
| 20260506162106 | 49 | 350 | 2.0 | 6.0 | 0.00 | 1.43 | 0.26 | 86 | 1009.4 |
| 20260506161610 | 49 | 286 | 2.0 | 5.0 | 0.00 | 1.43 | 0.26 | 86 | 1009.3 |
| 20260506161043 | 49 | 275 | 2.0 | 6.0 | 0.00 | 1.43 | 0.26 | 87 | 1009.3 |
| 20260506160510 | 49 | 334 | 1.0 | 6.0 | 0.00 | 1.43 | 0.26 | 87 | 1009.3 |
| 20260506160451 | 49 | 345 | 1.0 | 5.0 | 0.00 | 1.43 | 0.26 | 90 | 1009.2 |
| 20260506155507 | 48 | 342 | 2.0 | 5.0 | 0.00 | 1.43 | 0.26 | 89 | 1009.0 |
| 20260506154942 | 48 | 338 | 2.0 | 6.0 | 0.00 | 1.43 | 0.26 | 90 | 1009.0 |
| 20260506154414 | 48 | 321 | 1.0 | 6.0 | 0.00 | 1.43 | 0.26 | 90 | 1008.9 |
| 20260506153910 | 48 | 335 | 1.0 | 5.0 | 0.00 | 1.43 | 0.26 | 91 | 1008.7 |
| 20260506153640 | 48 | 307 | 2.0 | 5.0 | 0.00 | 1.43 | 0.26 | 93 | 1008.7 |
| 20260506152840 | 48 | 321 | 1.0 | 5.0 | 0.00 | 1.43 | 0.26 | 95 | 1008.5 |
| 20260506152306 | 48 | 313 | 0.0 | 4.0 | 0.00 | 1.43 | 0.26 | 100 | 1008.5 |
| 20260506151959 | 48 | 292 | 0.0 | 4.0 | 0.00 | 1.43 | 0.26 | 97 | 1008.5 |
| 20260506151227 | 47 | 296 | 0.0 | 3.0 | 0.00 | 1.43 | 0.26 | 98 | 1008.5 |
| 20260506150917 | 47 | 284 | 1.0 | 4.0 | 0.00 | 1.43 | 0.26 | 98 | 1008.3 |
| 20260506150350 | 47 | 288 | 1.0 | 4.0 | 0.00 | 1.43 | 0.26 | 99 | 1008.4 |
| 20260506145620 | 47 | 263 | 0.0 | 5.0 | 0.00 | 1.43 | 0.26 | 99 | 1008.2 |
| 20260506145124 | 47 | 338 | 1.0 | 5.0 | 0.00 | 1.43 | 0.26 | 99 | 1008.1 |
| 20260506144547 | 47 | 305 | 0.0 | 4.0 | 0.00 | 1.43 | 0.26 | 99 | 1008.0 |
| 20260506144450 | 47 | 305 | 0.0 | 3.0 | 0.00 | 1.43 | 0.26 | 99 | 1007.9 |
| 20260506143440 | 47 | 294 | 0.0 | 3.0 | 0.00 | 1.43 | 0.26 | 99 | 1007.9 |
| 20260506142915 | 47 | 290 | 0.0 | 0.0 | 0.00 | 1.43 | 0.26 | 99 | 1007.8 |
| 20260506142355 | 46 | 290 | 0.0 | 0.0 | 0.00 | 1.43 | 0.26 | 99 | 1007.8 |
| 20260506142039 | 46 | 290 | 0.0 | 0.0 | 0.00 | 1.43 | 0.26 | 99 | 1007.7 |
| 20260506141242 | 46 | 290 | 0.0 | 0.0 | 0.00 | 1.43 | 0.26 | 99 | 1007.7 |
| 20260506140705 | 46 | 290 | 0.0 | 0.0 | 0.00 | 1.43 | 0.26 | 99 | 1007.8 |
| 20260506140154 | 46 | 290 | 0.0 | 0.0 | 0.00 | 1.43 | 0.26 | 99 | 1007.7 |
| 20260506135654 | 46 | 290 | 0.0 | 0.0 | 0.00 | 1.43 | 0.26 | 99 | 1007.8 |
| 20260506135124 | 46 | 290 | 0.0 | 3.0 | 0.00 | 1.43 | 0.26 | 99 | 1007.8 |
| 20260506134540 | 46 | 290 | 0.0 | 3.0 | 0.00 | 1.43 | 0.26 | 99 | 1007.6 |
| 20260506134003 | 46 | 290 | 0.0 | 0.0 | 0.00 | 1.43 | 0.26 | 99 | 1007.4 |
| 20260506133450 | 46 | 290 | 0.0 | 0.0 | 0.00 | 1.43 | 0.26 | 99 | 1007.3 |
| 20260506132948 | 46 | 290 | 0.0 | 0.0 | 0.00 | 1.43 | 0.26 | 99 | 1007.3 |
| 20260506132445 | 46 | 290 | 0.0 | 0.0 | 0.00 | 1.43 | 0.26 | 99 | 1007.2 |
| 20260506131930 | 46 | 290 | 0.0 | 0.0 | 0.00 | 1.43 | 0.26 | 99 | 1007.0 |
| 20260506131430 | 46 | 290 | 0.0 | 0.0 | 0.00 | 1.43 | 0.26 | 99 | 1006.9 |
| 20260506131134 | 46 | 290 | 0.0 | 0.0 | 0.00 | 1.43 | 0.26 | 99 | 1006.8 |
| 20260506130326 | 45 | 290 | 0.0 | 0.0 | 0.00 | 1.43 | 0.26 | 99 | 1006.8 |
| 20260506125736 | 45 | 290 | 0.0 | 0.0 | 0.00 | 1.43 | 0.26 | 99 | 1006.4 |
| 20260506125211 | 45 | 290 | 0.0 | 0.0 | 0.00 | 1.43 | 0.26 | 99 | 1006.6 |
| 20260506124652 | 45 | 290 | 0.0 | 0.0 | 0.00 | 1.43 | 0.26 | 99 | 1006.6 |
| 20260506124143 | 45 | 290 | 0.0 | 0.0 | 0.00 | 1.43 | 0.26 | 99 | 1006.6 |
| 20260506123616 | 45 | 290 | 0.0 | 0.0 | 0.00 | 1.43 | 0.26 | 99 | 1006.6 |
| 20260506123058 | 45 | 290 | 0.0 | 0.0 | 0.00 | 1.43 | 0.26 | 99 | 1006.7 |
| 20260506122508 | 45 | 290 | 0.0 | 0.0 | 0.00 | 1.43 | 0.26 | 99 | 1006.8 |
| 20260506121927 | 45 | 290 | 0.0 | 0.0 | 0.00 | 1.43 | 0.26 | 99 | 1006.4 |
| 20260506121353 | 45 | 290 | 0.0 | 0.0 | 0.00 | 1.43 | 0.26 | 99 | 1006.5 |
| 20260506120852 | 45 | 290 | 0.0 | 0.0 | 0.00 | 1.43 | 0.26 | 99 | 1006.5 |
| 20260506120310 | 45 | 290 | 0.0 | 0.0 | 0.00 | 1.43 | 0.26 | 99 | 1006.3 |
| 20260506115714 | 45 | 290 | 0.0 | 0.0 | 0.00 | 1.43 | 0.26 | 99 | 1006.2 |
| 20260506115124 | 45 | 290 | 0.0 | 0.0 | 0.00 | 1.43 | 0.26 | 99 | 1006.2 |
| 20260506114535 | 45 | 290 | 0.0 | 0.0 | 0.00 | 1.43 | 0.26 | 99 | 1006.2 |
| 20260506114235 | 45 | 290 | 0.0 | 0.0 | 0.01 | 1.43 | 0.26 | 99 | 1005.9 |
| 20260506113505 | 45 | 290 | 0.0 | 0.0 | 0.01 | 1.43 | 0.26 | 99 | 1005.8 |
| 20260506112941 | 45 | 290 | 0.0 | 0.0 | 0.01 | 1.43 | 0.26 | 99 | 1005.8 |
| 20260506112439 | 45 | 290 | 0.0 | 0.0 | 0.01 | 1.43 | 0.26 | 99 | 1005.8 |
| 20260506111850 | 45 | 290 | 0.0 | 0.0 | 0.01 | 1.43 | 0.26 | 99 | 1005.4 |
| 20260506111319 | 45 | 290 | 0.0 | 0.0 | 0.01 | 1.43 | 0.26 | 99 | 1005.3 |
| 20260506111111 | 45 | 290 | 0.0 | 0.0 | 0.01 | 1.43 | 0.26 | 99 | 1005.2 |
| 20260506105712 | 45 | 290 | 0.0 | 0.0 | 0.01 | 1.43 | 0.26 | 99 | 1005.5 |
| 20260506105202 | 45 | 290 | 0.0 | 1.0 | 0.01 | 1.43 | 0.26 | 99 | 1005.4 |
| 20260506104655 | 44 | 290 | 0.0 | 1.0 | 0.01 | 1.43 | 0.26 | 99 | 1005.5 |
| 20260506104112 | 44 | 290 | 0.0 | 0.0 | 0.01 | 1.42 | 0.25 | 99 | 1005.3 |
| 20260506103516 | 44 | 290 | 0.0 | 0.0 | 0.02 | 1.42 | 0.25 | 99 | 1005.3 |
| 20260506102952 | 44 | 290 | 0.0 | 0.0 | 0.02 | 1.42 | 0.25 | 99 | 1004.9 |
| 20260506102446 | 44 | 290 | 0.0 | 0.0 | 0.03 | 1.42 | 0.25 | 99 | 1004.8 |
| 20260506101902 | 44 | 290 | 0.0 | 0.0 | 0.03 | 1.42 | 0.25 | 99 | 1004.6 |
| 20260506101311 | 44 | 290 | 0.0 | 0.0 | 0.03 | 1.42 | 0.25 | 99 | 1004.8 |
| 20260506100738 | 44 | 290 | 0.0 | 0.0 | 0.03 | 1.42 | 0.25 | 98 | 1004.8 |
| 20260506100159 | 45 | 290 | 0.0 | 0.0 | 0.03 | 1.42 | 0.25 | 98 | 1005.1 |
| 20260506095608 | 45 | 290 | 0.0 | 0.0 | 0.03 | 1.42 | 0.25 | 99 | 1004.9 |
| 20260506095028 | 45 | 290 | 0.0 | 0.0 | 0.03 | 1.42 | 0.25 | 99 | 1005.4 |
| 20260506093910 | 45 | 290 | 0.0 | 10.0 | 0.03 | 1.41 | 0.24 | 99 | 1005.5 |
| 20260506093559 | 45 | 304 | 0.0 | 0.0 | 0.03 | 1.40 | 0.23 | 99 | 1005.5 |
| 20260506092838 | 45 | 304 | 0.0 | 0.0 | 0.04 | 1.40 | 0.23 | 99 | 1005.2 |
| 20260506092307 | 45 | 304 | 0.0 | 0.0 | 0.04 | 1.39 | 0.22 | 99 | 1005.1 |
| 20260506091715 | 45 | 304 | 0.0 | 0.0 | 0.05 | 1.39 | 0.22 | 99 | 1005.0 |
| 20260506091149 | 45 | 304 | 0.0 | 0.0 | 0.06 | 1.39 | 0.22 | 99 | 1005.0 |
| 20260506090653 | 45 | 304 | 0.0 | 0.0 | 0.06 | 1.39 | 0.22 | 99 | 1004.9 |
| 20260506090058 | 45 | 304 | 0.0 | 0.0 | 0.07 | 1.39 | 0.22 | 99 | 1004.7 |
| 20260506085516 | 45 | 304 | 0.0 | 0.0 | 0.07 | 1.39 | 0.22 | 99 | 1004.4 |
| 20260506084935 | 45 | 304 | 0.0 | 0.0 | 0.08 | 1.39 | 0.22 | 98 | 1004.6 |
| 20260506084623 | 45 | 304 | 0.0 | 0.0 | 0.07 | 1.38 | 0.21 | 98 | 1004.8 |
| 20260506083908 | 45 | 304 | 0.0 | 0.0 | 0.08 | 1.38 | 0.21 | 98 | 1004.9 |
| 20260506083600 | 45 | 304 | 0.0 | 0.0 | 0.07 | 1.37 | 0.20 | 98 | 1005.1 |
| 20260506082759 | 45 | 304 | 0.0 | 0.0 | 0.07 | 1.36 | 0.19 | 98 | 1005.4 |
| 20260506082229 | 45 | 304 | 0.0 | 0.0 | 0.06 | 1.35 | 0.18 | 98 | 1005.4 |
| 20260506081703 | 45 | 304 | 0.0 | 0.0 | 0.05 | 1.34 | 0.17 | 98 | 1005.3 |
| 20260506081119 | 45 | 304 | 0.0 | 0.0 | 0.05 | 1.33 | 0.16 | 98 | 1005.2 |
| 20260506080755 | 45 | 304 | 0.0 | 0.0 | 0.05 | 1.33 | 0.16 | 98 | 1005.1 |
| 20260506073148 | 45 | 304 | 0.0 | 0.0 | 0.02 | 1.29 | 0.12 | 98 | 1004.8 |
| 20260506072825 | 45 | 304 | 0.0 | 0.0 | 0.02 | 1.29 | 0.12 | 98 | 1004.8 |
| 20260506072038 | 45 | 304 | 0.0 | 0.0 | 0.02 | 1.29 | 0.12 | 98 | 1004.8 |
| 20260506071459 | 45 | 304 | 0.0 | 0.0 | 0.02 | 1.29 | 0.12 | 98 | 1004.8 |
| 20260506070917 | 45 | 304 | 0.0 | 0.0 | 0.02 | 1.28 | 0.11 | 98 | 1004.8 |
| 20260506070548 | 45 | 304 | 0.0 | 0.0 | 0.02 | 1.28 | 0.11 | 98 | 1004.8 |
| 20260506062042 | 45 | 304 | 0.0 | 0.0 | 0.05 | 1.27 | 0.10 | 98 | 1004.9 |
| 20260506061946 | 45 | 304 | 0.0 | 0.0 | 0.05 | 1.27 | 0.10 | 98 | 1004.8 |
| 20260506061209 | 46 | 304 | 0.0 | 0.0 | 0.05 | 1.26 | 0.09 | 98 | 1004.9 |
| 20260506060427 | 45 | 304 | 0.0 | 0.0 | 0.05 | 1.26 | 0.09 | 98 | 1004.8 |
| 20260506060119 | 45 | 304 | 0.0 | 0.0 | 0.05 | 1.26 | 0.09 | 98 | 1004.8 |
| 20260506051016 | 46 | 304 | 0.0 | 0.0 | 0.03 | 1.21 | 0.04 | 98 | 1005.4 |
| 20260506050441 | 46 | 304 | 0.0 | 0.0 | 0.04 | 1.21 | 0.04 | 98 | 1005.5 |
| 20260506045127 | 47 | 304 | 0.0 | 0.0 | 0.05 | 1.21 | 0.04 | 98 | 1005.6 |
| 20260506044328 | 47 | 304 | 0.0 | 0.0 | 0.05 | 1.20 | 0.04 | 98 | 1005.7 |
| 20260506043751 | 47 | 304 | 0.0 | 0.0 | 0.05 | 1.21 | 0.03 | 98 | 1005.7 |
| 20260506043244 | 47 | 304 | 0.0 | 0.0 | 0.06 | 1.21 | 0.03 | 98 | 1005.8 |
| 20260506042713 | 47 | 304 | 0.0 | 0.0 | 0.07 | 1.21 | 0.03 | 98 | 1005.9 |
| 20260506042206 | 47 | 304 | 0.0 | 0.0 | 0.07 | 1.20 | 0.03 | 98 | 1006.1 |
| 20260506041710 | 47 | 304 | 0.0 | 0.0 | 0.08 | 1.20 | 0.02 | 98 | 1006.0 |
| 20260506041355 | 47 | 304 | 0.0 | 0.0 | 0.10 | 1.19 | 0.01 | 98 | 1006.1 |
| 20260506040600 | 47 | 304 | 0.0 | 0.0 | 0.10 | 1.18 | 0.01 | 98 | 1006.0 |
| 20260506040042 | 47 | 304 | 0.0 | 0.0 | 0.12 | 1.18 | 0.00 | 98 | 1005.9 |
| 20260506035537 | 47 | 304 | 0.0 | 0.0 | 0.14 | 1.18 | 1.18 | 98 | 1006.1 |
| 20260506034959 | 48 | 304 | 0.0 | 0.0 | 0.14 | 1.17 | 1.17 | 98 | 1006.2 |
| 20260506034655 | 48 | 304 | 0.0 | 0.0 | 0.14 | 1.16 | 1.17 | 98 | 1006.3 |
| 20260506033859 | 48 | 304 | 0.0 | 0.0 | 0.16 | 1.16 | 1.16 | 98 | 1006.3 |
| 20260506033342 | 48 | 304 | 0.0 | 0.0 | 0.16 | 1.15 | 1.15 | 98 | 1006.1 |
| 20260506032826 | 48 | 304 | 0.0 | 0.0 | 0.17 | 1.14 | 1.15 | 98 | 1006.1 |
| 20260506032320 | 48 | 304 | 0.0 | 0.0 | 0.18 | 1.14 | 1.14 | 98 | 1006.1 |
| 20260506031807 | 48 | 304 | 0.0 | 0.0 | 0.17 | 1.12 | 1.12 | 98 | 1006.0 |
| 20260506031255 | 48 | 304 | 0.0 | 0.0 | 0.17 | 1.10 | 1.10 | 98 | 1006.3 |
| 20260506030753 | 48 | 304 | 0.0 | 0.0 | 0.16 | 1.08 | 1.08 | 98 | 1006.0 |
| 20260506030253 | 48 | 304 | 0.0 | 0.0 | 0.16 | 1.07 | 1.07 | 98 | 1005.9 |
| 20260506025723 | 48 | 304 | 0.0 | 0.0 | 0.15 | 1.05 | 1.05 | 98 | 1005.9 |
| 20260506025151 | 48 | 304 | 0.0 | 0.0 | 0.14 | 1.03 | 1.03 | 98 | 1005.7 |
| 20260506024626 | 49 | 304 | 0.0 | 0.0 | 0.13 | 1.02 | 1.02 | 98 | 1005.7 |
| 20260506024313 | 49 | 304 | 0.0 | 0.0 | 0.13 | 1.01 | 1.01 | 98 | 1005.8 |
| 20260506023524 | 49 | 304 | 0.0 | 0.0 | 0.11 | 0.99 | 1.00 | 98 | 1005.8 |
| 20260506022951 | 49 | 304 | 0.0 | 0.0 | 0.11 | 0.98 | 0.98 | 98 | 1005.7 |
| 20260506022642 | 49 | 304 | 0.0 | 0.0 | 0.09 | 0.96 | 0.96 | 98 | 1005.9 |
| 20260506021845 | 49 | 304 | 0.0 | 0.0 | 0.09 | 0.96 | 0.96 | 98 | 1006.0 |
| 20260506021309 | 49 | 304 | 0.0 | 0.0 | 0.07 | 0.93 | 0.94 | 98 | 1006.0 |
| 20260506020739 | 49 | 304 | 0.0 | 0.0 | 0.07 | 0.92 | 0.92 | 98 | 1005.9 |
| 20260506020206 | 49 | 304 | 0.0 | 0.0 | 0.07 | 0.91 | 0.91 | 98 | 1005.9 |
| 20260506015858 | 49 | 304 | 0.0 | 0.0 | 0.06 | 0.90 | 0.90 | 98 | 1005.9 |
| 20260506015102 | 49 | 304 | 0.0 | 0.0 | 0.06 | 0.89 | 0.89 | 98 | 1005.7 |
| 20260506014548 | 49 | 304 | 0.0 | 0.0 | 0.05 | 0.88 | 0.88 | 98 | 1005.6 |
| 20260506014013 | 49 | 304 | 0.0 | 0.0 | 0.05 | 0.88 | 0.88 | 98 | 1005.5 |
| 20260506013434 | 49 | 304 | 0.0 | 0.0 | 0.05 | 0.88 | 0.88 | 98 | 1005.4 |
| 20260506012920 | 49 | 304 | 0.0 | 0.0 | 0.04 | 0.87 | 0.87 | 98 | 1005.4 |
| 20260506012347 | 49 | 304 | 0.0 | 0.0 | 0.04 | 0.87 | 0.87 | 98 | 1005.5 |
| 20260506011827 | 49 | 304 | 0.0 | 0.0 | 0.04 | 0.87 | 0.87 | 98 | 1005.4 |
| 20260506011319 | 49 | 304 | 0.0 | 0.0 | 0.03 | 0.86 | 0.86 | 98 | 1005.4 |
| 20260506010805 | 49 | 304 | 0.0 | 0.0 | 0.02 | 0.85 | 0.85 | 98 | 1005.4 |
| 20260506010239 | 49 | 304 | 0.0 | 0.0 | 0.01 | 0.84 | 0.84 | 98 | 1005.3 |
| 20260506005717 | 49 | 304 | 0.0 | 0.0 | 0.02 | 0.84 | 0.84 | 98 | 1005.4 |
| 20260506005131 | 49 | 304 | 0.0 | 0.0 | 0.01 | 0.83 | 0.83 | 98 | 1005.0 |
| 20260506004807 | 49 | 304 | 0.0 | 0.0 | 0.02 | 0.83 | 0.83 | 98 | 1005.2 |
| 20260506004230 | 49 | 304 | 0.0 | 0.0 | 0.02 | 0.83 | 0.83 | 98 | 1005.1 |